Home   Weather   Davos   Past weeks

Flag for Switzerland Past Weather in Davos, Graubünden, Switzerland — Yesterday and Last 2 Weeks

Now
47 °F

Sunny.


Feels Like: 47 °F
Forecast: 21 / 47 °F
Wind: 1 mph from Northwest

Location: Chur

Current Time: Apr 29, 2017 at 9:34:55 pm

Latest Report: Apr 29, 2017 at 8:00 pm


Visibility: 16 mi

Pressure: 29.99 "Hg (24.88 "Hg at 1540m altitude)

Humidity: 64%

Dew Point: 35 °F

Location of DavosLocation

Past Weather in Davos — Graph

°F

Davos Temperature Yesterday

Maximum temperature yesterday: 40 °F (at 6:00 pm)
Minimum temperature yesterday: 35 °F (at 3:00 am)
Average temperature yesterday: 37 °F

High & Low Weather Summary for the Past Weeks

 TemperatureHumidityPressure
High67 °F (Apr 24, 5:00 pm)95% (Apr 29, 5:00 am)30.61 "Hg (Apr 29, 5:00 am)
Low29 °F (Apr 20, 6:00 am)18% (Apr 21, 4:00 pm)29.65 "Hg (Apr 25, 3:00 pm)
Average44 °F70%30.12 "Hg
* Reported Apr 14 7:00 pm — Apr 29 7:00 pm, Davos, Weather by CustomWeather, © 2017

Note: Actual official high and low records may vary slightly from our data, if they occured in-between our weather recording intervals... More about our weather records

Advertising

Davos Weather History for the Previous 24 Hours

Scroll right to see more
 ConditionsComfort  
Time TempWeatherWind HumidityBarometerVisibility
7:00 pm
Sat, Apr 29
51 °FCool.5 mph50%29.96 "HgN/A
6:00 pm57 °FRefreshingly cool.5 mph31%29.95 "HgN/A
5:00 pm58 °FPassing clouds.7 mph34%29.95 "Hg16 mi
4:00 pm56 °FRefreshingly cool.9 mph34%29.98 "HgN/A
3:00 pm55 °FCool.9 mph37%30.00 "HgN/A
2:00 pm53 °FPassing clouds.9 mph41%30.02 "Hg16 mi
1:00 pm50 °FCool.8 mph44%30.06 "HgN/A
12:00 pm50 °FCool.8 mph50%30.09 "HgN/A
11:00 am47 °FPassing clouds.8 mph57%30.12 "Hg16 mi
10:00 am44 °FQuite cool.8 mph61%30.14 "HgN/A
9:00 am40 °FQuite cool.8 mph65%30.16 "HgN/A
8:00 am36 °FFog.3 mph88%30.19 "Hg7 mi
7:00 am35 °FChilly.5 mph77%30.19 "HgN/A
6:00 am34 °FChilly.2 mph92%30.20 "HgN/A
5:00 am35 °FFog.1 mph95%30.19 "Hg7 mi
4:00 am35 °FChilly.1 mph94%30.18 "HgN/A
3:00 am36 °FChilly.5 mph93%30.17 "HgN/A
2:00 am37 °FFog.2 mph92%30.17 "Hg3 mi
1:00 am37 °FChilly.1 mph92%30.17 "HgN/A
12:00 am37 °FChilly.1 mph93%30.17 "HgN/A
11:00 pm
Fri, Apr 28
36 °FFog.2 mph91%30.16 "Hg6 mi
10:00 pm37 °FChilly.No wind88%30.14 "HgN/A
9:00 pm38 °FChilly.3 mph87%30.11 "HgN/A
Weather by CustomWeather, © 2017

See weather overviewHow to use our weather pages